Probability
10 19 48 61 68 71 74 77 74 71 71 71 61 65 65 68 65 65 55 52 52 39 32 23 23 29 29 23 16 26 23 16 16 10 10 10 6 6 6 3 3 0 3
10 19 48 61 68 71 68 71 71 68 65 61 58 61 55 65 61 61 55 48 42 35 29 23 19 23 23 23 16 16 13 10 6 6 0 0 3 3 3 0 0 0 0
13 23 39 61 61 58 65 65 65 58 61 58 61 55 61 58 61 61 65 55 45 35 32 26 23 26 19 16 16 16 10 10 6 3 0 0 0 3 0 0 0 0 0
16 26 39 55 55 61 58 61 58 65 58 58 55 65 61 52 52 58 65 52 52 45 42 35 39 26 19 16 16 10 10 10 6 0 0 0 0 0 0 3 0 0 0
19 23 29 48 55 55 52 55 55 52 52 55 58 58 61 61 48 52 58 58 55 48 42 35 35 23 23 16 13 10 10 10 3 0 0 0 0 0 0 3 0 0 0
16 23 23 45 48 52 48 48 48 52 48 48 52 58 58 55 48 52 55 65 68 61 35 42 35 26 23 19 13 13 13 10 0 0 0 0 0 0 0 3 0 0 0
16 13 19 32 35 42 45 45 48 45 42 48 45 52 55 45 48 55 52 55 55 55 42 39 26 23 23 23 13 13 13 3 0 0 0 0 0 3 3 3 0 0 0
13 16 16 23 26 32 32 35 39 39 39 39 35 39 39 42 42 58 48 52 52 52 52 39 35 26 23 16 16 16 6 0 0 0 0 0 0 6 3 3 0 0 0
13 13 13 16 16 19 23 29 29 35 39 39 39 35 29 39 42 45 52 55 42 45 42 42 32 32 29 19 13 10 0 0 0 0 0 0 0 3 3 3 0 0 0
6 6 10 13 13 13 16 16 16 19 16 19 19 16 19 16 26 29 26 29 39 32 35 29 32 26 19 10 6 0 0 0 0 0 0 0 0 0 3 3 0 0 0
6 3 3 0 0 3 10 10 6 6 6 6 6 0 3 6 10 10 6 10 10 19 26 29 23 23 3 3 3 0 0 0 0 0 0 0 0 0 0 6 0 0 0
6 3 0 0 0 0 0 3 3 0 0 0 0 0 0 3 3 3 3 3 6 6 10 13 10 6 0 0 0 0 0 0 0 0 0 0 0 0 3 3 6 0 0
3 3 0 0 0 0 0 0 0 0 0 0 0 0 0 0 0 3 0 0 3 3 3 10 3 0 0 0 0 0 0 0 0 0 0 0 0 0 3 3 6 3 0
0 3 0 0 0 0 0 0 0 0 0 0 0 0 0 0 0 0 0 0 0 0 0 0 0 0 0 0 0 0 0 0 0 0 0 0 0 0 0 0 6 3 0
0 0 0 0 0 0 0 0 0 0 0 0 0 0 0 0 0 0 0 0 0 0 0 0 0 0 0 0 0 0 0 0 0 0 0 0 0 0 0 0 0 0 0
0 0 0 0 0 0 0 0 0 0 0 0 0 0 0 0 0 0 0 0 0 0 0 0 0 0 0 0 0 0 0 0 0 0 0 0 0 0 0 0 0 3 0
0 0 0 0 0 0 0 0 0 0 0 0 0 0 0 0 0 0 0 0 0 0 0 0 0 0 0 0 0 0 0 0 0 0 0 0 0 0 0 0 0 0 6
0 0 0 0 0 0 0 0 0 0 0 0 0 0 0 0 0 0 0 0 0 0 0 0 0 0 0 0 0 0 0 0 0 0 0 0 0 0 0 0 0 0 0
0 0 0 0 0 0 0 0 0 0 0 0 0 0 0 0 0 0 0 0 0 0 0 0 0 0 0 0 0 0 0 0 0 0 0 0 0 0 0 0 0 0 0
0 0 0 0 0 0 0 0 0 0 0 0 0 0 0 0 0 0 0 0 0 0 0 0 0 0 0 0 0 0 0 0 0 0 0 0 0 0 0 0 0 0 0
0 0 0 0 0 0 0 0 0 0 0 0 0 0 0 0 0 0 0 0 0 0 0 0 0 0 0 0 0 0 0 0 0 0 0 0 0 0 0 0 0 0 0
0 0 0 0 0 0 0 0 0 0 0 0 0 0 0 0 0 0 0 0 0 0 0 0 0 0 0 0 0 0 0 0 0 0 0 0 0 0 0 0 0 0 0
0 0 0 0 0 0 0 0 0 0 0 0 0 0 0 0 0 0 0 0 0 0 0 0 0 0 0 0 0 0 0 0 0 0 0 0 0 0 0 0 0 0 0
0 0 0 0 0 0 0 0 0 0 0 0 0 0 0 0 0 0 0 0 0 0 0 0 0 0 0 0 0 0 0 0 0 0 0 0 0 0 0 0 0 0 0
0 0 0 0 0 0 0 0 0 0 0 0 0 0 0 0 0 0 0 0 0 0 0 0 0 0 0 0 0 0 0 0 0 0 0 0 0 0 0 0 0 0 0
0 0 0 0 0 0 0 0 0 0 0 0 0 0 0 0 0 0 0 0 0 0 0 0 0 0 0 0 0 0 0 0 0 0 0 0 0 0 0 0 0 0 0
Height
5861 5862 5863 5864 5865 5866 5867 5868 5869 5870 5871 5872 5873 5873 5874 5875 5875 5876 5877 5877 5878 5878 5879 5879 5879 5880 5880 5880 5880 5880 5880 5881 5881 5881 5881 5881 5881 5881 5880 5880 5880 5879 5879
5858 5859 5860 5861 5862 5863 5864 5865 5867 5868 5869 5870 5870 5871 5872 5873 5873 5874 5875 5875 5876 5877 5877 5877 5878 5878 5878 5878 5878 5879 5879 5879 5879 5879 5879 5879 5879 5879 5879 5879 5878 5878 5878
5854 5856 5857 5858 5859 5860 5862 5863 5864 5865 5866 5867 5868 5869 5870 5870 5871 5872 5872 5873 5874 5874 5875 5876 5876 5876 5876 5877 5877 5877 5877 5877 5878 5878 5878 5878 5878 5877 5877 5877 5877 5876 5876
5851 5852 5854 5855 5856 5857 5858 5860 5861 5862 5863 5864 5864 5866 5866 5867 5868 5869 5870 5871 5871 5872 5873 5873 5874 5874 5874 5874 5875 5875 5875 5875 5875 5876 5876 5876 5876 5876 5875 5875 5875 5874 5874
5847 5848 5850 5851 5852 5854 5855 5856 5857 5858 5859 5860 5861 5862 5863 5864 5865 5866 5867 5868 5868 5869 5870 5870 5871 5871 5872 5872 5872 5872 5873 5873 5873 5873 5873 5874 5874 5873 5873 5873 5873 5872 5872
5842 5844 5845 5847 5848 5850 5851 5852 5853 5854 5856 5857 5857 5858 5859 5860 5861 5862 5863 5864 5865 5866 5866 5867 5868 5868 5869 5869 5869 5869 5870 5870 5870 5870 5870 5871 5871 5871 5871 5870 5870 5870 5870
5838 5839 5841 5842 5844 5845 5847 5848 5849 5850 5851 5852 5853 5854 5855 5856 5857 5858 5859 5860 5861 5862 5863 5863 5864 5865 5865 5865 5866 5866 5866 5867 5867 5867 5867 5868 5868 5868 5868 5868 5867 5867 5867
5833 5834 5836 5837 5839 5840 5842 5843 5844 5845 5846 5848 5849 5850 5851 5852 5853 5854 5855 5856 5857 5858 5858 5859 5860 5860 5861 5861 5862 5862 5863 5863 5863 5864 5864 5864 5864 5864 5864 5864 5864 5864 5864
5827 5829 5830 5832 5833 5834 5836 5837 5839 5840 5841 5842 5844 5845 5846 5847 5848 5849 5850 5851 5852 5853 5853 5854 5855 5856 5857 5857 5857 5858 5858 5859 5859 5860 5860 5860 5861 5861 5861 5861 5860 5860 5860
5820 5822 5824 5825 5827 5828 5830 5831 5832 5834 5835 5836 5837 5839 5840 5841 5842 5843 5844 5845 5846 5847 5848 5849 5850 5851 5852 5852 5853 5853 5854 5854 5855 5855 5855 5856 5856 5856 5856 5856 5856 5856 5856
5814 5815 5817 5818 5820 5821 5823 5824 5825 5827 5828 5829 5831 5832 5833 5834 5835 5837 5838 5839 5840 5841 5842 5843 5844 5845 5846 5847 5847 5848 5848 5849 5849 5850 5850 5851 5851 5851 5852 5852 5852 5852 5851
5806 5808 5809 5811 5812 5814 5815 5816 5818 5819 5820 5822 5823 5824 5825 5827 5828 5829 5831 5832 5833 5835 5836 5837 5838 5839 5840 5841 5842 5842 5843 5843 5844 5844 5845 5845 5846 5846 5846 5847 5847 5847 5847
5799 5800 5801 5803 5804 5806 5807 5808 5810 5811 5812 5813 5814 5816 5817 5819 5820 5821 5823 5824 5826 5827 5828 5830 5830 5832 5833 5834 5835 5836 5837 5837 5838 5839 5839 5840 5840 5840 5841 5841 5841 5841 5841
5791 5792 5793 5795 5796 5797 5799 5800 5801 5802 5803 5804 5806 5807 5808 5810 5811 5813 5814 5816 5817 5819 5820 5822 5823 5824 5825 5827 5828 5829 5830 5830 5831 5832 5833 5833 5834 5834 5835 5835 5835 5835 5835
5783 5784 5785 5786 5787 5789 5790 5791 5792 5793 5794 5795 5796 5797 5798 5800 5802 5803 5805 5806 5808 5809 5811 5813 5814 5816 5817 5819 5820 5821 5822 5823 5824 5825 5826 5826 5827 5828 5828 5828 5829 5829 5829
5774 5775 5776 5777 5778 5780 5781 5782 5783 5784 5785 5786 5787 5787 5788 5790 5791 5793 5795 5796 5798 5799 5801 5803 5805 5806 5808 5810 5811 5813 5814 5815 5816 5817 5818 5819 5820 5820 5821 5822 5822 5822 5822
5766 5767 5767 5768 5769 5770 5771 5772 5773 5774 5774 5775 5776 5777 5778 5779 5781 5782 5784 5786 5787 5789 5790 5792 5794 5796 5798 5800 5802 5804 5805 5806 5807 5809 5810 5811 5812 5812 5813 5814 5814 5814 5814
5757 5758 5759 5759 5760 5761 5762 5763 5763 5763 5764 5764 5765 5766 5767 5768 5769 5771 5773 5774 5776 5777 5779 5781 5783 5785 5788 5790 5792 5794 5795 5797 5798 5799 5801 5802 5803 5804 5804 5805 5806 5806 5806
5749 5749 5750 5750 5751 5752 5753 5753 5753 5753 5753 5753 5754 5755 5756 5757 5758 5759 5761 5763 5764 5766 5768 5770 5772 5774 5776 5779 5781 5783 5784 5786 5788 5789 5791 5792 5793 5795 5795 5796 5797 5797 5797
5740 5741 5741 5742 5742 5743 5743 5743 5743 5743 5743 5743 5744 5744 5745 5746 5746 5747 5749 5751 5752 5754 5756 5758 5760 5762 5765 5767 5769 5772 5774 5775 5777 5779 5781 5782 5784 5785 5786 5786 5787 5788 5788
5732 5732 5732 5733 5733 5733 5733 5733 5733 5733 5733 5733 5733 5733 5734 5735 5735 5736 5737 5739 5740 5742 5744 5745 5747 5750 5752 5754 5756 5759 5762 5764 5766 5768 5769 5771 5773 5775 5776 5776 5777 5777 5778
5723 5723 5724 5724 5724 5724 5724 5723 5723 5723 5723 5723 5723 5723 5723 5724 5724 5724 5725 5727 5728 5729 5731 5733 5735 5737 5740 5742 5744 5747 5749 5753 5754 5757 5758 5760 5762 5763 5764 5765 5766 5767 5768
5715 5715 5715 5715 5715 5715 5714 5714 5714 5713 5713 5712 5712 5712 5712 5712 5712 5712 5713 5714 5715 5716 5718 5720 5722 5724 5727 5729 5731 5734 5737 5740 5743 5745 5746 5748 5749 5751 5752 5754 5755 5755 5756
5708 5707 5707 5707 5707 5706 5705 5705 5704 5703 5702 5701 5701 5700 5700 5700 5699 5700 5700 5701 5703 5704 5706 5707 5709 5711 5714 5717 5719 5721 5724 5727 5730 5733 5735 5736 5737 5739 5740 5741 5742 5743 5744
5700 5700 5699 5699 5698 5697 5696 5695 5694 5693 5691 5690 5689 5688 5688 5687 5687 5687 5688 5689 5690 5692 5693 5695 5696 5698 5701 5704 5706 5708 5710 5713 5715 5718 5722 5725 5726 5727 5728 5729 5730 5731 5731
5693 5692 5692 5691 5690 5688 5687 5685 5684 5682 5681 5679 5678 5677 5677 5676 5676 5676 5676 5677 5678 5680 5681 5683 5684 5686 5688 5691 5694 5696 5698 5700 5702 5705 5708 5711 5713 5715 5716 5716 5717 5718 5719
Wind_Speed
17 17 16 16 15 15 14 14 13 13 12 11 10 10 9 8 8 7 7 6 6 6 6 6 6 6 6 7 7 8 8 8 8 7 7 8 8 9 9 9 9 9 9
19 18 18 17 16 16 16 16 16 15 14 13 12 12 11 11 10 10 9 8 8 8 7 7 7 8 8 8 8 9 9 10 9 9 9 9 10 10 10 10 10 10 10
20 20 19 19 18 18 17 17 17 17 16 16 15 15 14 13 13 12 12 11 11 10 9 9 9 9 9 9 9 10 10 11 11 11 11 11 11 11 11 11 11 11 11
22 21 21 20 20 19 19 18 19 18 18 18 18 17 17 16 16 15 14 14 13 13 12 12 11 11 11 11 11 11 11 11 12 12 12 12 12 12 12 12 12 12 12
24 23 23 23 22 22 21 21 20 20 20 20 20 19 19 19 18 18 17 16 16 15 15 14 14 13 13 13 13 13 13 13 13 13 13 13 13 13 13 13 13 13 13
26 26 26 25 25 24 24 23 23 22 22 22 22 22 21 21 20 20 20 19 18 18 17 17 17 16 16 15 15 16 15 15 15 14 14 15 15 15 15 15 14 14 14
28 28 28 28 28 27 27 26 26 25 25 24 24 24 23 23 23 22 22 22 21 21 20 20 20 19 18 18 18 17 17 17 17 17 16 16 17 17 17 16 16 16 16
30 31 31 30 30 29 30 29 29 29 28 27 26 26 26 25 25 24 24 24 24 23 23 23 22 22 22 21 21 20 20 20 19 19 19 18 18 18 18 18 18 18 18
33 33 33 33 33 32 32 32 32 32 31 30 30 29 28 28 27 27 27 27 26 26 26 25 25 24 24 23 23 23 22 22 22 22 21 21 20 20 20 20 20 20 20
35 35 35 35 35 35 35 35 35 34 34 33 33 33 32 31 30 30 29 29 29 29 29 28 28 27 26 26 25 25 25 25 25 24 24 23 23 22 22 21 21 21 22
36 36 37 37 38 38 37 37 37 37 37 36 36 36 35 34 34 33 32 32 32 32 31 31 30 30 29 28 27 27 27 27 27 26 26 25 25 24 24 23 23 23 23
38 38 38 38 39 39 39 39 39 39 39 38 38 38 37 37 37 36 36 35 35 34 34 33 33 33 32 31 30 30 29 29 29 29 28 28 27 26 25 25 25 25 25
39 39 39 39 39 39 39 40 40 40 40 40 40 40 40 39 39 39 39 39 38 37 37 36 36 35 35 34 33 32 32 32 31 31 30 29 29 29 28 27 27 27 27
39 39 40 40 40 40 40 40 41 41 41 42 42 42 42 42 42 41 42 41 41 41 40 40 39 38 37 37 36 36 35 34 33 33 32 32 31 31 30 30 29 29 29
40 40 41 41 41 41 42 42 42 42 43 43 44 44 44 44 44 43 44 44 44 44 43 43 42 41 40 40 39 39 38 37 36 35 34 34 34 33 33 32 31 31 31
40 41 41 42 42 42 43 44 44 45 45 45 46 46 46 46 46 45 45 46 46 46 46 45 45 45 44 43 42 41 41 40 39 38 37 36 36 36 35 35 34 33 33
40 41 42 42 43 43 44 44 45 46 47 47 47 47 47 47 47 47 47 47 47 47 48 48 47 46 46 45 45 44 43 43 42 41 41 40 38 38 37 36 36 36 36
40 40 41 42 42 42 42 43 44 44 45 46 47 47 48 48 48 48 48 48 47 48 48 49 49 49 48 47 47 46 46 45 45 44 43 43 41 40 39 38 38 38 38
39 39 40 41 41 42 42 43 43 44 44 45 45 46 47 48 48 49 49 49 48 49 49 49 50 50 50 49 49 48 47 47 47 47 46 45 44 43 41 41 41 40 40
39 40 40 41 41 42 43 43 43 43 43 44 45 45 45 46 47 48 49 49 50 50 50 50 50 51 51 51 51 50 49 49 49 48 48 47 46 45 43 43 43 43 42
38 39 39 40 41 41 42 42 42 42 43 44 44 45 45 45 46 47 48 49 50 51 51 51 51 51 52 52 53 52 51 51 50 50 49 49 48 47 46 45 44 44 44
38 38 38 39 40 40 40 41 41 42 43 43 44 45 46 46 47 47 48 49 50 51 52 52 53 53 52 52 53 52 53 52 51 51 50 49 49 49 48 47 47 47 46
37 37 37 38 38 39 39 40 41 42 43 44 45 46 46 47 47 48 48 49 50 50 51 52 53 54 53 53 53 53 53 52 52 52 51 50 50 50 50 49 49 48 48
34 35 35 36 36 37 38 39 40 41 42 44 45 46 47 47 47 47 47 48 49 49 50 50 51 52 53 52 53 54 55 54 53 52 51 51 51 51 51 51 50 49 48
32 32 33 33 33 34 36 37 38 39 40 41 42 43 43 44 44 45 45 46 47 48 48 49 50 50 52 52 52 53 55 55 54 54 53 51 51 51 50 50 51 49 49
31 32 32 32 32 33 34 35 37 38 39 39 39 41 42 43 43 43 43 45 45 46 47 48 49 49 51 52 52 52 53 54 53 54 54 53 52 51 51 50 50 51 51
Wind_Direction
246 246 247 248 249 250 252 252 253 253 253 253 255 256 257 260 261 264 269 272 279 286 287 287 287 291 292 291 289 289 289 290 292 291 289 291 296 298 299 298 300 302 306
247 248 248 249 250 251 252 253 254 254 255 255 256 257 258 260 263 263 265 267 271 276 278 280 282 283 287 287 285 285 286 285 287 289 289 289 293 296 298 298 297 298 300
248 248 249 249 251 252 253 254 256 257 257 258 257 258 259 261 263 264 264 266 268 270 273 276 278 280 281 283 282 283 284 284 284 285 287 289 290 293 295 296 296 296 297
248 249 249 250 251 253 254 255 257 258 259 260 260 260 261 261 262 263 265 266 267 268 269 272 275 275 277 277 279 280 282 282 282 282 283 285 287 290 292 293 294 295 296
249 250 250 251 252 254 255 256 257 258 260 261 262 262 262 263 263 263 264 265 266 267 267 269 272 273 275 275 275 276 277 279 282 280 279 281 283 285 288 289 291 293 294
250 251 251 252 253 254 256 257 258 259 260 261 262 263 263 264 265 265 264 265 266 266 266 267 268 270 274 275 274 274 274 275 277 279 278 278 280 281 283 284 287 289 291
252 252 253 253 254 255 256 258 259 260 261 262 263 263 263 264 265 265 266 265 266 266 267 267 267 268 271 273 274 274 272 272 273 274 277 279 279 278 279 281 283 285 287
252 253 254 255 256 257 257 258 259 261 261 262 263 263 263 264 264 265 265 265 266 266 267 267 266 267 269 271 272 271 271 270 271 273 275 276 278 278 278 279 280 283 285
254 254 255 256 257 258 259 259 260 261 261 262 263 263 263 264 264 264 264 264 265 265 266 267 267 268 269 270 270 270 270 270 270 272 274 274 276 278 277 277 278 280 282
255 256 256 257 257 258 259 260 260 261 261 262 263 263 263 264 264 264 264 264 264 264 265 265 267 268 268 269 269 269 269 269 270 271 272 273 275 276 276 276 277 279 281
257 257 258 258 258 259 260 260 261 261 262 262 263 263 263 263 263 263 263 263 264 264 264 265 266 267 267 268 268 268 268 268 269 270 270 271 272 274 275 275 275 277 279
257 258 258 259 259 260 260 260 261 262 262 263 263 263 263 262 262 263 263 263 263 263 264 264 265 266 267 267 267 267 267 268 268 269 269 269 271 272 273 275 275 277 279
258 258 259 259 259 259 260 260 260 261 262 263 263 263 263 262 262 262 263 262 262 262 262 263 263 264 265 266 266 266 266 267 267 268 268 268 270 271 273 275 275 276 278
258 259 259 259 260 260 261 261 261 262 262 263 263 263 263 263 262 262 262 262 261 261 262 262 262 262 263 264 265 266 266 265 266 267 268 268 269 270 271 273 275 275 276
259 259 260 260 260 260 261 261 262 262 262 263 263 263 263 262 262 262 262 261 261 260 260 260 261 261 262 263 264 264 265 265 265 265 267 268 269 269 270 272 274 275 275
261 261 261 261 261 261 262 262 263 263 263 263 264 263 263 263 262 261 261 261 261 260 260 260 260 260 261 261 262 263 264 264 264 265 265 267 268 269 270 271 273 274 275
261 262 262 262 262 263 263 264 265 265 265 264 264 263 263 263 263 263 262 261 261 260 260 259 259 259 259 259 260 262 263 264 264 264 265 266 267 268 269 271 272 273 274
262 263 263 263 264 264 265 266 266 266 266 266 265 264 263 263 263 263 263 262 262 261 261 259 259 259 259 259 259 260 261 262 263 263 264 265 266 267 268 270 271 273 273
263 263 263 264 264 265 266 266 266 266 266 266 266 265 265 264 263 263 262 262 262 261 261 259 258 258 258 258 258 259 260 261 262 263 263 264 265 266 267 269 270 272 273
264 265 265 266 266 266 266 267 267 267 267 266 266 266 266 265 265 264 263 262 262 261 261 260 259 258 257 257 258 258 258 259 261 262 263 264 264 265 266 268 269 271 272
266 267 267 267 267 267 268 268 268 268 268 267 266 266 266 266 267 265 263 262 262 261 261 261 260 258 257 257 257 257 257 258 260 262 262 263 263 264 266 267 268 271 271
267 266 267 267 267 268 268 269 270 269 268 267 266 266 267 268 267 266 265 263 261 261 260 260 260 259 258 258 258 257 256 257 258 260 261 262 263 263 265 266 267 270 271
267 267 267 267 268 269 270 270 271 271 270 269 267 267 267 268 268 267 266 263 262 261 260 260 260 259 257 257 257 257 256 257 258 258 259 260 262 262 262 264 266 268 268
267 267 267 268 269 269 270 272 273 273 272 271 269 268 268 269 269 268 266 264 263 262 260 260 260 259 256 256 257 256 257 257 257 257 258 260 262 262 263 264 265 266 267
267 268 268 270 270 271 272 274 275 276 274 273 272 271 270 269 268 267 266 265 263 261 260 260 260 259 256 255 256 256 256 257 257 258 259 260 260 261 263 264 265 265 267
267 268 269 271 273 275 277 277 278 277 276 275 273 271 270 269 269 267 266 265 264 262 261 260 260 260 258 256 256 256 257 257 258 259 260 259 260 260 262 264 264 264 265